Regional Weather Roundup
Issued by NWS Austin/San Antonio, TX

Current Version | Previous Version | Text Only | Print | Product List | Glossary On
Versions: 1 2 3 4 5 6 7 8 9 10 11 12 13 14 15 16 17 18 19 20 21 22 23 24 25 26 27 28 29 30 31 32 33 34 35 36 37 38 39 40 41 42 43 44 45 46 47 48 49 50
000
ASUS44 KEWX 232111
RWREWX
SOUTH TEXAS REGIONAL WEATHER ROUNDUP
NATIONAL WEATHER SERVICE AUSTIN/SAN ANTONIO TX
400 PM CDT FRI OCT 23 2020

NOTE: "FAIR" INDICATED FEW OR NO CLOUDS BELOW 12,000 FEET WITH NO
SIGNIFICANT WEATHER AND/OR OBSTRUCTIONS TO VISIBILITY.

* - THESE STATIONS ARE NOT NWS OR FAA STATIONS...AND ARE NOT SUBJECT
    TO NWS AND FAA QUALITY CONTROL.

TXZ171-172-183>190-232200-
TEXAS HILL COUNTRY AND EDWARDS PLATEAU

CITY           SKY/WX    TMP DP  RH WIND       PRES   REMARKS
JUNCTION       CLOUDY    59  48  67 N12       30.14S
*LLANO         CLOUDY    54  50  87 NW15      30.13R
BURNET         CLOUDY    56  50  80 N13G26    30.12R
*HORSESHOE BAY CLOUDY    57  54  88 NW14G21   30.11R
*LAGO VISTA    CLOUDY    58  55  90 N13G23    30.07R
*KERRVILLE     CLOUDY    72  64  75 N15G21    30.05S
*FREDERICKSBRG CLOUDY    58  54  85 N14G23    30.10R
*ROCKSPRINGS   MOSUNNY   68  55  64 N14G26    30.12S
*BOERNE        CLOUDY    72  64  78 N9        30.03R
*CASTROVILLE   PTSUNNY   89  64  42 E3        29.97F HX  90
HONDO          CLOUDY    90  66  45 E9        29.96F HX  92
*UVALDE        PTSUNNY   85  67  54 NE7       29.98F
DEL RIO        PTSUNNY   81  59  47 NW18G32   30.00R
*LAUGHLIN AFB  PTSUNNY   83  63  50 N17G28    29.98F
*SPOFFORD      MOSUNNY  N/A N/A N/A NW6       29.92F
*EAGLE PASS    NOT AVBL
CARRIZO SPRGS  SUNNY     88  68  51 E8G16     29.92S HX  91
*FAITH RANCH   MOSUNNY   93  66  40 NE10      29.93F HX  96
$$

TXZ173-191>194-202-209-217>225-228-232200-
CENTRAL AND SOUTH CENTRAL TEXAS

CITY           SKY/WX    TMP DP  RH WIND       PRES   REMARKS
GEORGETOWN     CLOUDY    59  54  83 NW20G28   30.09R
*TAYLOR        CLOUDY    63  56  78 N25G31    30.06R
AUSTIN/BERGSTM PTSUNNY   78  65  63 N20       30.00S
AUSTIN/MABRY   CLOUDY    73  63  70 N6G20     30.03R
*PFLUGERVILLE  CLOUDY    68  59  73 N24G31    30.04R HAZE
SAN MARCOS     CLOUDY    80  68  66 N17       30.00R
NEW BRAUNFELS  CLOUDY    86  68  54 NE18      29.96S
*RANDOLPH AFB  PTSUNNY   85  66  52 NE7       29.95F
*SEGUIN        CLOUDY    84  66  55 NE17      29.99S
SAN ANTONIO    PTSUNNY   87  66  49 VRB5      29.96F
STINSON FIELD  CLOUDY    86  65  49 NE7       29.93F
*KELLY FIELD   CLOUDY    87  67  50 NE9       29.94F HX  90
*PLEASANTON    MOSUNNY   91  66  43 NE5       29.94F HX  93
*KENEDY        MOSUNNY   91  66  43 NE7       29.93F HAZE    HX  94
*LA GRANGE     PTSUNNY   84  67  56 N5        29.94F
*GIDDINGS      PTSUNNY   83  67  58 N13G20    30.00R
*GONZALES      PTSUNNY   90  67  47 N10       29.94S HX  93
$$

TXZ163>164-176>182-195>201-210>213-226-227-235-232200-
SOUTHEAST TEXAS

CITY           SKY/WX    TMP DP  RH WIND       PRES   REMARKS
COLLEGE STN    PTSUNNY   65  60  84 N23G30    30.02R
*BRYAN         CLOUDY    62  59  91 NW24G31   30.05R
*CALDWELL      CLOUDY    64  62  93 N24G32    30.04R
*CROCKETT      NOT AVBL
*BRENHAM       PTSUNNY   75  68  78 N15       29.99R
HUNTSVILLE     CLOUDY    71  65  81 NW16G28   29.98R
CONROE         CLOUDY    72  65  78 NE5       29.91F
HOUSTON BUSH   CLOUDY    74  65  73 N8        29.93R
HOUSTON HOBBY  PTSUNNY   80  62  54 NE10G23   29.91F
*HOUSTON SW AP PTSUNNY   77  68  73 N6        29.92F
PEARLAND       PTSUNNY   79  61  53 NE16G23   29.95F
HOUSTON HOOKS  PTSUNNY   72  65  78 NW3       29.92F
ELLINGTON FLD  PTSUNNY   77  64  65 NE13G23   29.92F
SUGAR LAND     PTSUNNY   80  68  66 N9        29.91F
*HOUSTON EXEC  PTSUNNY   79  66  65 NE8       29.95F
*CLEVELAND MUN PTSUNNY   69  67  94 N3        29.91F
*WHARTON       MOSUNNY   79  63  57 N15G24    29.93F HAZE
*COLUMBUS      NOT AVBL
*EAGLE LAKE    PTSUNNY   82  66  60 NE16      29.94F
$$

TXZ214>216-236>238-232200-
THE UPPER TEXAS COAST

CITY           SKY/WX    TMP DP  RH WIND       PRES   REMARKS
*ORANGE        TSTM      75  69  80 NW16G25   29.96R
PORT ARTHUR    TSTM      68  68 100 SW10      29.98R FOG
GALVESTON      PTSUNNY   82  73  74 E6        29.93F THUNDER
ANGLETON       CLOUDY    84  74  71 E8        29.91F HX  91
*BAY CITY      SUNNY     90  71  52 N9        29.90F HX  95
PALACIOS       MOSUNNY   84  74  71 S7        29.90F HX  91
$$

TXZ229>234-239>247-232200-
TEXAS COASTAL BEND AND RIO GRANDE PLAINS

CITY           SKY/WX    TMP DP  RH WIND       PRES   REMARKS
VICTORIA       SUNNY     92  68  45 VRB3      29.91F HX  96
*BEEVILLE      NOT AVBL
ROCKPORT       SUNNY     87  75  67 SE10      29.90F HX  96
*PORT ARANSAS  SUNNY     84  76  75 E9        29.92F HX  93
*PORT LAVACA   MOSUNNY   92  69  46 NE12      29.91F HX  97
*INGLESIDE     SUNNY     89  77  67 SE9       29.90F HX 101
CORPUS CHRISTI MOSUNNY   90  73  58 E8        29.92R HX  98
CORPUS NAS     MOSUNNY   88  75  65 SE12      29.91F HX  97
*ROBSTOWN      MOSUNNY   90  69  49 NW5       29.90F HX  94
ALICE          PTSUNNY   94  69  44 NE10      29.90F HX  99
KINGSVILLE NAS NOT AVBL
COTULLA        SUNNY     92  67  43 E8        29.92F HX  95
LAREDO         PTSUNNY   95  69  42 E12       29.90R HX 100
$$

TXZ248>255-232200-
DEEP SOUTH TEXAS

CITY           SKY/WX    TMP DP  RH WIND       PRES   REMARKS
BROWNSVILLE    MOSUNNY   89  75  63 E14       29.87S HX  99
PORT ISABEL    MOSUNNY   85  76  74 E14       29.88F HX  94
HARLINGEN      MOSUNNY   91  77  63 E14       29.86F HX 104
*HEBBRONVILLE  PTSUNNY   88  64  43 E8        29.93R
MCALLEN        SUNNY     94  71  47 CALM      29.86F HX 101
*WESLACO       PTSUNNY   96  65  36 SE6       29.85F HX  98
FALFURRIAS     MOSUNNY   88  68  50 NE9       29.89S HX  91
EDINBURG       MOSUNNY   93  61  33 CALM      29.87S HX  93
*ZAPATA        SUNNY     97  65  34 SE6       29.88F HX 100
$$

TXZ213>215-236>238-242>244-246-247-251-254-255-232200-
CMAN STATIONS

STATION/POSITION TIME  TEMP    WIND        PRES    WAVE
                       AIR SEA DIR/SP/G            HT/PER
                 (UTC) (F)     (DEG/KT/KT) (MB)    (FT/S)
NORTH JETTY/GLS  2030   84      90/  8/  9 1012.5
EAGLE POINT      2030   77     360/ 15/ 29 1014.3
MORGANS POINT    2030           20/ 16/ 22 1014.5
PORT O`CONNOR    2030   81     150/  6/  6 1012.8
MALAQUITE BEACH  2024   85      50/ 11/ 12   N/A
BAFFIN BAY       2024   81      50/ 11/ 13 1012.4
PORT ISABEL      2024   83      70/ 10/ 14 1013.9
$$




USA.gov is the U.S. government's official web portal to all federal, state and local government web resources and services.